TimeEST,TemperatureF,Dew PointF,Humidity,Sea Level PressureIn,VisibilityMPH,Wind Direction,Wind SpeedMPH,Gust SpeedMPH,PrecipitationIn,Events,Conditions,WindDirDegrees,DateUTC
12:06 AM,28.4,28.4,100,29.83,4.0,South,4.6,-,N/A,Snow,Light Snow,170,2012-11-26 05:06:00
12:09 AM,28.4,28.4,100,29.83,4.0,South,4.6,-,N/A,Snow,Light Snow,170,2012-11-26 05:09:00
12:15 AM,28.4,28.4,100,29.83,4.0,SSW,4.6,-,N/A,Snow,Light Snow,200,2012-11-26 05:15:00
12:42 AM,30.2,30.2,100,29.82,9.0,SW,4.6,-,N/A,Snow,Light Snow,220,2012-11-26 05:42:00
12:55 AM,29.7,29.5,99,29.82,10.0,Calm,Calm,-,0.00,Snow,Light Snow,0,2012-11-26 05:55:00
12:58 AM,30.2,30.2,100,29.82,10.0,Calm,Calm,-,N/A,,Overcast,0,2012-11-26 05:58:00
1:01 AM,30.2,30.2,100,29.82,10.0,Calm,Calm,-,N/A,Snow,Light Snow,0,2012-11-26 06:01:00
1:06 AM,30.2,28.4,93,29.82,8.0,Calm,Calm,-,N/A,Snow,Light Snow,0,2012-11-26 06:06:00
1:26 AM,30.2,30.2,100,29.83,4.0,South,5.8,-,N/A,Snow,Light Snow,180,2012-11-26 06:26:00
1:28 AM,30.2,30.2,100,29.83,5.0,South,5.8,-,N/A,Snow,Light Snow,180,2012-11-26 06:28:00
1:35 AM,30.2,28.4,93,29.83,9.0,South,4.6,-,N/A,Snow,Light Snow,170,2012-11-26 06:35:00
1:45 AM,30.2,28.4,93,29.83,10.0,SSE,3.5,-,N/A,Snow,Light Snow,160,2012-11-26 06:45:00
1:46 AM,28.4,28.4,100,29.83,10.0,SSE,4.6,-,N/A,Snow,Light Snow,160,2012-11-26 06:46:00
1:53 AM,28.4,28.4,100,29.83,10.0,South,6.9,-,N/A,,Overcast,170,2012-11-26 06:53:00
1:55 AM,28.6,28.4,99,29.83,10.0,South,6.9,-,0.00,,Mostly Cloudy,170,2012-11-26 06:55:00
1:57 AM,28.4,28.4,100,29.83,10.0,South,6.9,-,N/A,,Mostly Cloudy,170,2012-11-26 06:57:00
2:04 AM,28.4,28.4,100,29.83,10.0,SSE,4.6,-,N/A,,Mostly Cloudy,150,2012-11-26 07:04:00
2:29 AM,30.2,28.4,93,29.84,10.0,South,6.9,-,N/A,,Mostly Cloudy,170,2012-11-26 07:29:00
2:36 AM,30.2,30.2,100,29.84,10.0,South,6.9,-,N/A,Snow,Light Snow,170,2012-11-26 07:36:00
2:55 AM,30.0,29.8,99,29.84,5.0,South,6.9,-,0.00,Snow,Light Snow,180,2012-11-26 07:55:00
3:02 AM,30.2,30.2,100,29.84,9.0,South,6.9,-,N/A,Snow,Light Snow,180,2012-11-26 08:02:00
3:03 AM,30.2,30.2,100,29.84,10.0,South,5.8,-,N/A,Snow,Light Snow,180,2012-11-26 08:03:00
3:09 AM,30.2,30.2,100,29.84,10.0,South,6.9,-,N/A,,Overcast,190,2012-11-26 08:09:00
3:37 AM,30.2,30.2,100,29.84,10.0,SSW,4.6,-,N/A,,Overcast,210,2012-11-26 08:37:00
3:41 AM,30.2,30.2,100,29.85,10.0,SSW,4.6,-,N/A,,Overcast,210,2012-11-26 08:41:00
3:47 AM,30.2,30.2,100,29.85,10.0,SW,4.6,-,N/A,Snow,Light Snow,230,2012-11-26 08:47:00
3:55 AM,30.6,30.4,99,29.85,8.0,WSW,5.8,-,0.00,Snow,Light Snow,240,2012-11-26 08:55:00
4:14 AM,32.0,32.0,100,29.86,10.0,WSW,4.6,-,N/A,,Overcast,250,2012-11-26 09:14:00
4:16 AM,32.0,32.0,100,29.86,10.0,WSW,4.6,-,N/A,,Overcast,250,2012-11-26 09:16:00
4:19 AM,32.0,32.0,100,29.86,10.0,WSW,5.8,-,N/A,Snow,Light Snow,250,2012-11-26 09:19:00
4:33 AM,32.0,32.0,100,29.86,10.0,West,6.9,-,N/A,,Overcast,260,2012-11-26 09:33:00
4:39 AM,32.0,32.0,100,29.86,10.0,WSW,5.8,-,N/A,Snow,Light Snow,250,2012-11-26 09:39:00
4:49 AM,32.0,32.0,100,29.87,10.0,WSW,5.8,-,N/A,,Overcast,250,2012-11-26 09:49:00
4:55 AM,31.8,31.3,98,29.87,10.0,West,4.6,-,0.00,,Overcast,260,2012-11-26 09:55:00
5:33 AM,32.0,30.2,93,29.90,10.0,West,8.1,-,N/A,,Overcast,280,2012-11-26 10:33:00
5:55 AM,32.2,29.8,91,29.91,10.0,West,8.1,-,N/A,,Overcast,280,2012-11-26 10:55:00
6:55 AM,30.6,27.7,89,29.95,10.0,West,6.9,-,N/A,,Overcast,260,2012-11-26 11:55:00
7:44 AM,30.2,28.4,93,29.99,10.0,Variable,6.9,-,N/A,,Overcast,0,2012-11-26 12:44:00
7:49 AM,30.2,28.4,93,30.00,10.0,NNW,8.1,-,N/A,,Overcast,330,2012-11-26 12:49:00
7:53 AM,30.2,26.6,86,30.00,10.0,North,8.1,-,N/A,,Overcast,350,2012-11-26 12:53:00
7:55 AM,29.3,27.1,92,30.00,10.0,North,8.1,-,N/A,,Overcast,360,2012-11-26 12:55:00
7:59 AM,28.4,26.6,93,30.01,10.0,North,5.8,-,N/A,,Overcast,350,2012-11-26 12:59:00
8:42 AM,26.6,24.8,93,30.04,10.0,NNW,5.8,-,N/A,,Overcast,340,2012-11-26 13:42:00
8:46 AM,26.6,24.8,93,30.04,10.0,NNW,6.9,-,N/A,,Overcast,340,2012-11-26 13:46:00
8:55 AM,26.2,24.4,93,30.05,10.0,NNW,10.4,-,N/A,,Overcast,340,2012-11-26 13:55:00
8:56 AM,26.6,24.8,93,30.05,10.0,NNW,10.4,-,N/A,,Overcast,340,2012-11-26 13:56:00
9:31 AM,24.8,23.0,93,30.07,10.0,NNW,4.6,-,N/A,,Overcast,340,2012-11-26 14:31:00
9:52 AM,26.6,23.0,86,30.09,10.0,NNE,5.8,-,N/A,,Mostly Cloudy,20,2012-11-26 14:52:00
9:55 AM,26.2,21.9,84,30.09,10.0,North,5.8,-,N/A,,Mostly Cloudy,10,2012-11-26 14:55:00
10:07 AM,26.6,23.0,86,30.10,10.0,North,4.6,-,N/A,,Mostly Cloudy,350,2012-11-26 15:07:00
10:55 AM,26.4,21.6,82,30.11,10.0,NE,6.9,-,N/A,,Mostly Cloudy,50,2012-11-26 15:55:00
10:58 AM,26.6,21.2,80,30.11,10.0,NE,3.5,-,N/A,,Scattered Clouds,50,2012-11-26 15:58:00
11:02 AM,26.6,21.2,80,30.11,10.0,North,8.1,-,N/A,,Mostly Cloudy,10,2012-11-26 16:02:00
11:11 AM,28.4,21.2,74,30.11,10.0,NNE,5.8,-,N/A,,Mostly Cloudy,20,2012-11-26 16:11:00
11:50 AM,28.4,21.2,74,30.11,10.0,Calm,Calm,-,N/A,,Scattered Clouds,0,2012-11-26 16:50:00
11:55 AM,28.2,21.7,77,30.11,10.0,Calm,Calm,-,0.02,,Scattered Clouds,0,2012-11-26 16:55:00
11:56 AM,28.4,21.2,74,30.11,10.0,Calm,Calm,-,N/A,,Mostly Cloudy,0,2012-11-26 16:56:00
12:18 PM,28.4,23.0,80,30.10,10.0,NE,3.5,-,N/A,,Scattered Clouds,40,2012-11-26 17:18:00
12:55 PM,29.7,21.6,72,30.11,10.0,Calm,Calm,-,0.02,,Partly Cloudy,0,2012-11-26 17:55:00
1:55 PM,32.2,20.8,63,30.12,10.0,Variable,3.5,-,N/A,,Clear,0,2012-11-26 18:55:00
2:55 PM,30.4,20.8,68,30.13,10.0,Calm,Calm,-,N/A,,Overcast,0,2012-11-26 19:55:00
3:55 PM,30.0,21.9,72,30.16,10.0,NNW,3.5,-,N/A,,Overcast,330,2012-11-26 20:55:00
4:55 PM,29.7,21.7,72,30.17,10.0,Calm,Calm,-,N/A,,Overcast,0,2012-11-26 21:55:00
5:55 PM,28.9,22.8,78,30.18,10.0,Calm,Calm,-,N/A,,Mostly Cloudy,0,2012-11-26 22:55:00
6:01 PM,30.2,23.0,75,30.18,10.0,Calm,Calm,-,N/A,,Scattered Clouds,0,2012-11-26 23:01:00
6:06 PM,28.4,23.0,80,30.19,10.0,Calm,Calm,-,N/A,,Mostly Cloudy,0,2012-11-26 23:06:00
6:10 PM,28.4,23.0,80,30.19,10.0,Calm,Calm,-,N/A,,Mostly Cloudy,0,2012-11-26 23:10:00
6:11 PM,28.4,23.0,80,30.18,10.0,Calm,Calm,-,N/A,,Mostly Cloudy,0,2012-11-26 23:11:00
6:13 PM,28.4,23.0,80,30.18,10.0,South,3.5,-,N/A,,Mostly Cloudy,180,2012-11-26 23:13:00
6:20 PM,28.4,23.0,80,30.18,10.0,South,3.5,-,N/A,,Mostly Cloudy,170,2012-11-26 23:20:00
6:55 PM,28.9,23.9,81,30.19,10.0,Calm,Calm,-,0.00,,Mostly Cloudy,0,2012-11-26 23:55:00
7:25 PM,30.2,24.8,80,30.19,10.0,SE,4.6,-,N/A,,Mostly Cloudy,140,2012-11-27 00:25:00
7:55 PM,29.1,25.3,86,30.20,10.0,SSE,5.8,-,0.00,Snow,Light Snow,150,2012-11-27 00:55:00
8:18 PM,28.4,26.6,93,30.20,10.0,SSE,5.8,-,N/A,Snow,Light Snow,150,2012-11-27 01:18:00
8:28 PM,28.4,26.6,93,30.19,9.0,SE,5.8,-,N/A,Snow,Light Snow,140,2012-11-27 01:28:00
8:48 PM,28.4,26.6,93,30.19,10.0,SE,4.6,-,N/A,Snow,Light Snow,140,2012-11-27 01:48:00
8:55 PM,28.6,26.6,92,30.20,10.0,SE,4.6,-,0.00,Snow,Light Snow,140,2012-11-27 01:55:00
9:09 PM,28.4,26.6,93,30.20,6.0,SE,5.8,-,N/A,Snow,Light Snow,140,2012-11-27 02:09:00
9:55 PM,28.4,27.7,97,30.20,5.0,SE,4.6,-,0.00,Snow,Light Snow,140,2012-11-27 02:55:00
10:55 PM,28.4,28.2,99,30.20,8.0,SSE,6.9,-,0.00,Snow,Light Snow,150,2012-11-27 03:55:00
11:23 PM,28.4,28.4,100,30.20,10.0,SE,6.9,-,N/A,Snow,Light Snow,140,2012-11-27 04:23:00
11:31 PM,28.4,28.4,100,30.20,10.0,SE,6.9,-,N/A,Snow,Light Snow,140,2012-11-27 04:31:00
11:43 PM,28.4,28.4,100,30.20,10.0,SSE,5.8,-,N/A,,Mostly Cloudy,150,2012-11-27 04:43:00
11:55 PM,28.9,28.8,99,30.20,10.0,SE,6.9,-,0.00,,Mostly Cloudy,140,2012-11-27 04:55:00